Home > Weather > Kowloon > Past weeks

Flag for Hong Kong Past Weather in Kowloon, Hong Kong — Yesterday and Last 2 Weeks

Now
91 °F

Scattered clouds.


Feels Like: 105 °F
Forecast: 86 / 90 °F
Wind: 13 mph from South

Location: National Airport

Current Time: Jul 1, 2016 at 4:05:44 PM

Latest Report: Jul 1, 2016 at 3:30 PM


Visibility: N/A

Pressure: 29.74 "Hg

Humidity: 63%

Dew Point: 77 °F

Location of KowloonLocation

Past Weather in Kowloon — Graph

°F

Kowloon Temperature Yesterday

Maximum temperature yesterday: 91 °F (at 11:00 AM)
Minimum temperature yesterday: 82 °F (at 9:30 PM)
Average temperature yesterday: 88 °F

High & Low Weather Summary for the Past Weeks

 TemperatureHumidityPressure
High97 °F (Jun 27, 1:00 PM)94% (Jun 28, 6:00 AM)29.86 "Hg (Jun 28, 6:00 AM)
Low81 °F (Jun 17, 3:00 AM)44% (Jun 24, 2:00 PM)29.65 "Hg (Jun 28, 4:30 AM)
Average88 °F72%29.78 "Hg
* Reported Jun 16 3:00 PM — Jul 1 3:00 PM, Kowloon, Weather by CustomWeather, © 2016

Note: Actual official high and low records may vary slightly from our data, if they occured in-between our weather recording intervals... More about our weather records

Advertising

Kowloon Weather History for the Previous 24 Hours

Scroll right to see more
 ConditionsComfort  
Time TempWeatherWind HumidityBarometerVisibility
3:00 PM
Fri, Jul 1
90 °FScattered clouds.14 mph71%29.77 "HgN/A
2:30 PM90 °FScattered clouds.10 mph67%29.77 "HgN/A
2:00 PM91 °FScattered clouds.15 mph59%29.77 "HgN/A
1:30 PM91 °FScattered clouds.14 mph63%29.80 "HgN/A
1:00 PM90 °FScattered clouds.10 mph67%29.80 "HgN/A
12:30 PM90 °FScattered clouds.12 mph63%29.80 "HgN/A
12:00 PM90 °FScattered clouds.12 mph63%29.80 "HgN/A
11:30 AM90 °FScattered clouds.15 mph67%29.80 "HgN/A
11:00 AM90 °FScattered clouds.13 mph71%29.83 "HgN/A
10:30 AM90 °FScattered clouds.13 mph71%29.83 "HgN/A
10:00 AM90 °FScattered clouds.13 mph63%29.83 "HgN/A
9:30 AM88 °FScattered clouds.13 mph70%29.83 "HgN/A
9:00 AM90 °FScattered clouds.14 mph67%29.80 "HgN/A
8:30 AM88 °FScattered clouds.12 mph70%29.83 "HgN/A
8:00 AM88 °FScattered clouds.12 mph70%29.80 "HgN/A
7:30 AM88 °FScattered clouds.6 mph70%29.80 "HgN/A
7:00 AM86 °FScattered clouds.9 mph75%29.80 "HgN/A
6:30 AM86 °FScattered clouds.6 mph70%29.80 "HgN/A
6:00 AM86 °FScattered clouds.6 mph75%29.77 "HgN/A
5:30 AM86 °FPassing clouds.3 mph75%29.77 "HgN/A
5:00 AM86 °FPassing clouds.5 mph70%29.77 "HgN/A
4:30 AM84 °FPassing clouds.6 mph79%29.77 "HgN/A
4:00 AM86 °FPassing clouds.12 mph79%29.77 "HgN/A
3:30 AM84 °FPassing clouds.10 mph84%29.77 "HgN/A
3:00 AM86 °FPassing clouds.9 mph75%29.77 "HgN/A
2:30 AM86 °FPassing clouds.7 mph75%29.77 "HgN/A
2:00 AM86 °FPassing clouds.12 mph75%29.77 "HgN/A
1:30 AM86 °FPassing clouds.12 mph75%29.77 "HgN/A
1:00 AM86 °FPassing clouds.10 mph75%29.80 "HgN/A
12:30 AM86 °FPassing clouds.10 mph75%29.80 "HgN/A
12:00 AM86 °FSprinkles. Passing clouds.12 mph75%29.83 "HgN/A
11:30 PM
Thu, Jun 30
86 °FPassing clouds.10 mph79%29.83 "HgN/A
11:00 PM86 °FPassing clouds.10 mph75%29.86 "HgN/A
10:30 PM86 °FPassing clouds.8 mph79%29.86 "HgN/A
10:00 PM86 °FPassing clouds.2 mph79%29.86 "HgN/A
9:30 PM82 °FThundershowers. Passing clouds.13 mph89%29.83 "HgN/A
9:00 PM88 °FThundershowers. Passing clouds.10 mph70%29.83 "HgN/A
8:30 PM88 °FPassing clouds.8 mph70%29.83 "HgN/A
8:00 PM88 °FPassing clouds.12 mph70%29.80 "HgN/A
7:30 PM88 °FPassing clouds.10 mph70%29.80 "HgN/A
7:00 PM88 °FScattered clouds.9 mph70%29.80 "HgN/A
6:30 PM88 °FScattered clouds.14 mph70%29.77 "HgN/A
6:00 PM88 °FScattered clouds.14 mph70%29.77 "HgN/A
5:30 PM90 °FScattered clouds.13 mph67%29.77 "HgN/A
5:00 PM90 °FScattered clouds.12 mph67%29.77 "HgN/A
4:30 PM90 °FScattered clouds.16 mph67%29.77 "HgN/A
4:00 PM91 °FScattered clouds.14 mph63%29.77 "HgN/A
Weather by CustomWeather, © 2016

See weather overviewHow to use our weather pages